anno;DATA;ORA;Livello mare (ultrasuoni) (m)
2013;01/01/2013;01:00;-0.19
2013;01/01/2013;02:00;-0.16
2013;01/01/2013;03:00;-0.14
2013;01/01/2013;04:00;-0.13
2013;01/01/2013;05:00;-0.13
2013;01/01/2013;06:00;-0.17
2013;01/01/2013;07:00;-0.19
2013;01/01/2013;08:00;-0.23
2013;01/01/2013;09:00;-0.28
2013;01/01/2013;10:00;-0.3
2013;01/01/2013;11:00;-0.31
2013;01/01/2013;12:00;-0.29
2013;01/01/2013;13:00;-0.24
2013;01/01/2013;14:00;-0.21
2013;01/01/2013;15:00;-0.17
2013;01/01/2013;16:00;-0.16
2013;01/01/2013;17:00;-0.17
2013;01/01/2013;18:00;-0.19
2013;01/01/2013;19:00;-0.21
2013;01/01/2013;20:00;-0.24
2013;01/01/2013;21:00;-0.29
2013;01/01/2013;22:00;-0.29
2013;01/01/2013;23:00;-0.29
2013;02/01/2013;00:00;-0.25
2013;02/01/2013;01:00;-0.22
2013;02/01/2013;02:00;-0.19
2013;02/01/2013;03:00;-0.16
2013;02/01/2013;04:00;-0.13
2013;02/01/2013;05:00;-0.15
2013;02/01/2013;06:00;-0.16
2013;02/01/2013;07:00;-0.17
2013;02/01/2013;08:00;-0.21
2013;02/01/2013;09:00;-0.23
2013;02/01/2013;10:00;-0.28
2013;02/01/2013;11:00;-0.31
2013;02/01/2013;12:00;-0.29
2013;02/01/2013;13:00;-0.27
2013;02/01/2013;14:00;-0.23
2013;02/01/2013;15:00;-0.2
2013;02/01/2013;16:00;-0.18
2013;02/01/2013;17:00;-0.17
2013;02/01/2013;18:00;-0.17
2013;02/01/2013;19:00;-0.2
2013;02/01/2013;20:00;-0.23
2013;02/01/2013;21:00;-0.24
2013;02/01/2013;22:00;-0.26
2013;02/01/2013;23:00;-0.28
2013;03/01/2013;00:00;-0.25
2013;03/01/2013;01:00;-0.27
2013;03/01/2013;02:00;-0.21
2013;03/01/2013;03:00;-0.22
2013;03/01/2013;04:00;-0.18
2013;03/01/2013;05:00;-0.16
2013;03/01/2013;06:00;-0.18
2013;03/01/2013;07:00;-0.2
2013;03/01/2013;08:00;-0.2
2013;03/01/2013;09:00;-0.23
2013;03/01/2013;10:00;-0.28
2013;03/01/2013;11:00;-0.3
2013;03/01/2013;12:00;-0.33
2013;03/01/2013;13:00;-0.32
2013;03/01/2013;14:00;-0.3
2013;03/01/2013;15:00;-0.27
2013;03/01/2013;16:00;-0.26
2013;03/01/2013;17:00;-0.22
2013;03/01/2013;18:00;-0.21
2013;03/01/2013;19:00;-0.22
2013;03/01/2013;20:00;-0.24
2013;03/01/2013;21:00;-0.27
2013;03/01/2013;22:00;-0.3
2013;03/01/2013;23:00;-0.31
2013;04/01/2013;00:00;-0.31
2013;04/01/2013;01:00;-0.33
2013;04/01/2013;02:00;-0.3
2013;04/01/2013;03:00;-0.29
2013;04/01/2013;04:00;-0.26
2013;04/01/2013;05:00;-0.25
2013;04/01/2013;06:00;-0.25
2013;04/01/2013;07:00;-0.25
2013;04/01/2013;08:00;-0.27
2013;04/01/2013;09:00;-0.27
2013;04/01/2013;10:00;-0.3
2013;04/01/2013;11:00;-0.32
2013;04/01/2013;12:00;-0.35
2013;04/01/2013;13:00;-0.37
2013;04/01/2013;14:00;-0.35
2013;04/01/2013;15:00;-0.32
2013;04/01/2013;16:00;-0.32
2013;04/01/2013;17:00;-0.3
2013;04/01/2013;18:00;-0.28
2013;04/01/2013;19:00;-0.28
2013;04/01/2013;20:00;-0.25
2013;04/01/2013;21:00;-0.26
2013;04/01/2013;22:00;-0.29
2013;04/01/2013;23:00;-0.31
2013;05/01/2013;00:00;-0.34
2013;05/01/2013;01:00;-0.32
2013;05/01/2013;02:00;-0.33
2013;05/01/2013;03:00;-0.33
2013;05/01/2013;04:00;-0.32
2013;05/01/2013;05:00;-0.3
2013;05/01/2013;06:00;-0.27
2013;05/01/2013;07:00;-0.29
2013;05/01/2013;08:00;-0.27
2013;05/01/2013;09:00;-0.25
2013;05/01/2013;10:00;-0.29
2013;05/01/2013;11:00;-0.31
2013;05/01/2013;12:00;-0.32
2013;05/01/2013;13:00;-0.32
2013;05/01/2013;14:00;-0.34
2013;05/01/2013;15:00;-0.32
2013;05/01/2013;16:00;-0.3
2013;05/01/2013;17:00;-0.3
2013;05/01/2013;18:00;-0.28
2013;05/01/2013;19:00;-0.25
2013;05/01/2013;20:00;-0.25
2013;05/01/2013;21:00;-0.25
2013;05/01/2013;22:00;-0.24
2013;05/01/2013;23:00;-0.26
2013;06/01/2013;00:00;-0.27
2013;06/01/2013;01:00;-0.27
2013;06/01/2013;02:00;-0.29
2013;06/01/2013;03:00;-0.32
2013;06/01/2013;04:00;-0.32
2013;06/01/2013;05:00;-0.29
2013;06/01/2013;06:00;-0.32
2013;06/01/2013;07:00;-0.31
2013;06/01/2013;08:00;-0.29
2013;06/01/2013;09:00;-0.32
2013;06/01/2013;10:00;-0.29
2013;06/01/2013;11:00;-0.28
2013;06/01/2013;12:00;-0.28
2013;06/01/2013;13:00;-0.31
2013;06/01/2013;14:00;-0.34
2013;06/01/2013;15:00;-0.32
2013;06/01/2013;16:00;-0.34
2013;06/01/2013;17:00;-0.31
2013;06/01/2013;18:00;-0.32
2013;06/01/2013;19:00;-0.28
2013;06/01/2013;20:00;-0.21
2013;06/01/2013;21:00;-0.27
2013;06/01/2013;22:00;-0.22
2013;06/01/2013;23:00;-0.23
2013;07/01/2013;00:00;-0.22
2013;07/01/2013;01:00;-0.2
2013;07/01/2013;02:00;-0.23
2013;07/01/2013;03:00;-0.29
2013;07/01/2013;04:00;-0.26
2013;07/01/2013;05:00;-0.29
2013;07/01/2013;06:00;-0.29
2013;07/01/2013;07:00;-0.28
2013;07/01/2013;08:00;-0.26
2013;07/01/2013;09:00;-0.24
2013;07/01/2013;10:00;-0.23
2013;07/01/2013;11:00;-0.2
2013;07/01/2013;12:00;-0.2
2013;07/01/2013;13:00;-0.26
2013;07/01/2013;14:00;-0.26
2013;07/01/2013;15:00;-0.32
2013;07/01/2013;16:00;-0.35
2013;07/01/2013;17:00;-0.31
2013;07/01/2013;18:00;-0.29
2013;07/01/2013;19:00;-0.31
2013;07/01/2013;20:00;-0.23
2013;07/01/2013;21:00;-0.18
2013;07/01/2013;22:00;-0.22
2013;07/01/2013;23:00;-0.16
2013;08/01/2013;00:00;-0.21
2013;08/01/2013;01:00;-0.2
2013;08/01/2013;02:00;-0.25
2013;08/01/2013;03:00;-0.28
2013;08/01/2013;04:00;-0.27
2013;08/01/2013;05:00;-0.32
2013;08/01/2013;06:00;-0.36
2013;08/01/2013;07:00;-0.32
2013;08/01/2013;08:00;-0.27
2013;08/01/2013;09:00;-0.27
2013;08/01/2013;10:00;-0.23
2013;08/01/2013;11:00;-0.23
2013;08/01/2013;12:00;-0.21
2013;08/01/2013;13:00;-0.23
2013;08/01/2013;14:00;-0.26
2013;08/01/2013;15:00;-0.28
2013;08/01/2013;16:00;-0.32
2013;08/01/2013;17:00;-0.34
2013;08/01/2013;18:00;-0.34
2013;08/01/2013;19:00;-0.35
2013;08/01/2013;20:00;-0.29
2013;08/01/2013;21:00;-0.28
2013;08/01/2013;22:00;-0.21
2013;08/01/2013;23:00;-0.15
2013;09/01/2013;00:00;-0.16
2013;09/01/2013;01:00;-0.13
2013;09/01/2013;02:00;-0.21
2013;09/01/2013;03:00;-0.2
2013;09/01/2013;04:00;-0.23
2013;09/01/2013;05:00;-0.28
2013;09/01/2013;06:00;-0.33
2013;09/01/2013;07:00;-0.33
2013;09/01/2013;08:00;-0.33
2013;09/01/2013;09:00;-0.29
2013;09/01/2013;10:00;-0.28
2013;09/01/2013;11:00;-0.21
2013;09/01/2013;12:00;-0.18
2013;09/01/2013;13:00;-0.19
2013;09/01/2013;14:00;-0.22
2013;09/01/2013;15:00;-0.26
2013;09/01/2013;16:00;-0.3
2013;09/01/2013;17:00;-0.31
2013;09/01/2013;18:00;-0.35
2013;09/01/2013;19:00;-0.31
2013;09/01/2013;20:00;-0.29
2013;09/01/2013;21:00;-0.27
2013;09/01/2013;22:00;-0.21
2013;09/01/2013;23:00;-0.16
2013;10/01/2013;00:00;-0.14
2013;10/01/2013;01:00;-0.11
2013;10/01/2013;02:00;-0.13
2013;10/01/2013;03:00;-0.15
2013;10/01/2013;04:00;-0.19
2013;10/01/2013;05:00;-0.25
2013;10/01/2013;06:00;-0.28
2013;10/01/2013;07:00;-0.3
2013;10/01/2013;08:00;-0.33
2013;10/01/2013;09:00;-0.28
2013;10/01/2013;10:00;-0.26
2013;10/01/2013;11:00;-0.21
2013;10/01/2013;12:00;-0.19
2013;10/01/2013;13:00;-0.14
2013;10/01/2013;14:00;-0.14
2013;10/01/2013;15:00;-0.17
2013;10/01/2013;16:00;-0.2
2013;10/01/2013;17:00;-0.26
2013;10/01/2013;18:00;-0.25
2013;10/01/2013;19:00;-0.3
2013;10/01/2013;20:00;-0.29
2013;10/01/2013;21:00;-0.22
2013;10/01/2013;22:00;-0.18
2013;10/01/2013;23:00;-0.15
2013;11/01/2013;00:00;-0.05
2013;11/01/2013;01:00;-0.07
2013;11/01/2013;02:00;-0.03
2013;11/01/2013;03:00;-0.05
2013;11/01/2013;04:00;-0.12
2013;11/01/2013;05:00;-0.15
2013;11/01/2013;06:00;-0.2
2013;11/01/2013;07:00;-0.26
2013;11/01/2013;08:00;-0.27
2013;11/01/2013;09:00;-0.27
2013;11/01/2013;10:00;-0.24
2013;11/01/2013;11:00;-0.2
2013;11/01/2013;12:00;-0.18
2013;11/01/2013;13:00;-0.12
2013;11/01/2013;14:00;-0.09
2013;11/01/2013;15:00;-0.12
2013;11/01/2013;16:00;-0.13
2013;11/01/2013;17:00;-0.15
2013;11/01/2013;18:00;-0.23
2013;11/01/2013;19:00;-0.26
2013;11/01/2013;20:00;-0.26
2013;11/01/2013;21:00;-0.26
2013;11/01/2013;22:00;-0.2
2013;11/01/2013;23:00;-0.15
2013;12/01/2013;00:00;-0.09
2013;12/01/2013;01:00;-0.01
2013;12/01/2013;02:00;-0.06
2013;12/01/2013;03:00;0
2013;12/01/2013;04:00;-0.07
2013;12/01/2013;05:00;-0.14
2013;12/01/2013;06:00;-0.21
2013;12/01/2013;07:00;-0.23
2013;12/01/2013;08:00;-0.29
2013;12/01/2013;09:00;-0.27
2013;12/01/2013;10:00;-0.27
2013;12/01/2013;11:00;-0.25
2013;12/01/2013;12:00;-0.22
2013;12/01/2013;13:00;-0.18
2013;12/01/2013;14:00;-0.12
2013;12/01/2013;15:00;-0.13
2013;12/01/2013;16:00;-0.14
2013;12/01/2013;17:00;-0.17
2013;12/01/2013;18:00;-0.24
2013;12/01/2013;19:00;-0.28
2013;12/01/2013;20:00;-0.31
2013;12/01/2013;21:00;-0.32
2013;12/01/2013;22:00;-0.3
2013;12/01/2013;23:00;-0.25
2013;13/01/2013;00:00;-0.2
2013;13/01/2013;01:00;-0.15
2013;13/01/2013;02:00;-0.11
2013;13/01/2013;03:00;-0.08
2013;13/01/2013;04:00;-0.1
2013;13/01/2013;05:00;-0.15
2013;13/01/2013;06:00;-0.19
2013;13/01/2013;07:00;-0.27
2013;13/01/2013;08:00;-0.3
2013;13/01/2013;09:00;-0.33
2013;13/01/2013;10:00;-0.32
2013;13/01/2013;11:00;-0.31
2013;13/01/2013;12:00;-0.25
2013;13/01/2013;13:00;-0.23
2013;13/01/2013;14:00;-0.17
2013;13/01/2013;15:00;-0.16
2013;13/01/2013;16:00;-0.14
2013;13/01/2013;17:00;-0.16
2013;13/01/2013;18:00;-0.21
2013;13/01/2013;19:00;-0.27
2013;13/01/2013;20:00;-0.3
2013;13/01/2013;21:00;-0.31
2013;13/01/2013;22:00;-0.31
2013;13/01/2013;23:00;-0.29
2013;14/01/2013;00:00;-0.23
2013;14/01/2013;01:00;-0.15
2013;14/01/2013;02:00;-0.12
2013;14/01/2013;03:00;-0.1
2013;14/01/2013;04:00;-0.08
2013;14/01/2013;05:00;-0.13
2013;14/01/2013;06:00;-0.17
2013;14/01/2013;07:00;-0.21
2013;14/01/2013;08:00;-0.24
2013;14/01/2013;09:00;-0.28
2013;14/01/2013;10:00;-0.28
2013;14/01/2013;11:00;-0.3
2013;14/01/2013;12:00;-0.25
2013;14/01/2013;13:00;-0.23
2013;14/01/2013;14:00;-0.18
2013;14/01/2013;15:00;-0.17
2013;14/01/2013;16:00;-0.14
2013;14/01/2013;17:00;-0.12
2013;14/01/2013;18:00;-0.16
2013;14/01/2013;19:00;-0.18
2013;14/01/2013;20:00;-0.27
2013;14/01/2013;21:00;-0.29
2013;14/01/2013;22:00;-0.26
2013;14/01/2013;23:00;-0.29
2013;15/01/2013;00:00;-0.23
2013;15/01/2013;01:00;-0.17
2013;15/01/2013;02:00;-0.16
2013;15/01/2013;03:00;-0.14
2013;15/01/2013;04:00;-0.06
2013;15/01/2013;05:00;-0.12
2013;15/01/2013;06:00;-0.15
2013;15/01/2013;07:00;-0.2
2013;15/01/2013;08:00;-0.2
2013;15/01/2013;09:00;-0.25
2013;15/01/2013;10:00;-0.3
2013;15/01/2013;11:00;-0.29
2013;15/01/2013;12:00;-0.23
2013;15/01/2013;13:00;-0.23
2013;15/01/2013;14:00;-0.15
2013;15/01/2013;15:00;-0.09
2013;15/01/2013;16:00;-0.15
2013;15/01/2013;17:00;-0.12
2013;15/01/2013;18:00;-0.19
2013;15/01/2013;19:00;-0.15
2013;15/01/2013;20:00;-0.15
2013;15/01/2013;21:00;-0.19
2013;15/01/2013;22:00;-0.26
2013;15/01/2013;23:00;-0.23
2013;16/01/2013;00:00;-0.24
2013;16/01/2013;01:00;-0.2
2013;16/01/2013;02:00;-0.1
2013;16/01/2013;03:00;-0.16
2013;16/01/2013;04:00;-0.14
2013;16/01/2013;05:00;-0.12
2013;16/01/2013;06:00;-0.1
2013;16/01/2013;07:00;-0.11
2013;16/01/2013;08:00;-0.15
2013;16/01/2013;09:00;-0.12
2013;16/01/2013;10:00;-0.22
2013;16/01/2013;11:00;-0.22
2013;16/01/2013;12:00;-0.2
2013;16/01/2013;13:00;-0.21
2013;16/01/2013;14:00;-0.1
2013;16/01/2013;15:00;-0.18
2013;16/01/2013;16:00;-0.11
2013;16/01/2013;17:00;-0.04
2013;16/01/2013;18:00;-0.02
2013;16/01/2013;19:00;-0.08
2013;16/01/2013;20:00;-0.06
2013;16/01/2013;21:00;-0.09
2013;16/01/2013;22:00;-0.18
2013;16/01/2013;23:00;-0.16
2013;17/01/2013;00:00;-0.15
2013;17/01/2013;01:00;-0.16
2013;17/01/2013;02:00;-0.14
2013;17/01/2013;03:00;-0.08
2013;17/01/2013;04:00;-0.06
2013;17/01/2013;05:00;-0.01
2013;17/01/2013;06:00;-0.02
2013;17/01/2013;07:00;-0.02
2013;17/01/2013;08:00;-0.02
2013;17/01/2013;09:00;-0.08
2013;17/01/2013;10:00;-0.08
2013;17/01/2013;11:00;-0.1
2013;17/01/2013;12:00;-0.12
2013;17/01/2013;13:00;-0.09
2013;17/01/2013;14:00;-0.08
2013;17/01/2013;15:00;-0.07
2013;17/01/2013;16:00;-0.06
2013;17/01/2013;17:00;-0.02
2013;17/01/2013;18:00;0.03
2013;17/01/2013;19:00;0.03
2013;17/01/2013;20:00;-0.01
2013;17/01/2013;21:00;0.01
2013;17/01/2013;22:00;-0.01
2013;17/01/2013;23:00;-0.02
2013;18/01/2013;00:00;-0.09
2013;18/01/2013;01:00;-0.03
2013;18/01/2013;02:00;-0.03
2013;18/01/2013;03:00;0
2013;18/01/2013;04:00;0.01
2013;18/01/2013;05:00;0
2013;18/01/2013;06:00;0.02
2013;18/01/2013;07:00;0.05
2013;18/01/2013;08:00;-0.01
2013;18/01/2013;09:00;-0.02
2013;18/01/2013;10:00;-0.03
2013;18/01/2013;11:00;-0.06
2013;18/01/2013;12:00;0.01
2013;18/01/2013;13:00;-0.09
2013;18/01/2013;14:00;-0.02
2013;18/01/2013;15:00;0
2013;18/01/2013;16:00;-0.05
2013;18/01/2013;17:00;0.01
2013;18/01/2013;18:00;0.01
2013;18/01/2013;19:00;0.03
2013;18/01/2013;20:00;0.09
2013;18/01/2013;21:00;0.02
2013;18/01/2013;22:00;0
2013;18/01/2013;23:00;-0.01
2013;19/01/2013;00:00;-0.11
2013;19/01/2013;01:00;-0.09
2013;19/01/2013;02:00;-0.09
2013;19/01/2013;03:00;-0.06
2013;19/01/2013;04:00;-0.03
2013;19/01/2013;05:00;-0.03
2013;19/01/2013;06:00;-0.09
2013;19/01/2013;07:00;-0.07
2013;19/01/2013;08:00;-0.07
2013;19/01/2013;09:00;-0.06
2013;19/01/2013;10:00;-0.06
2013;19/01/2013;11:00;-0.11
2013;19/01/2013;12:00;-0.14
2013;19/01/2013;13:00;-0.12
2013;19/01/2013;14:00;-0.11
2013;19/01/2013;15:00;-0.11
2013;19/01/2013;16:00;-0.11
2013;19/01/2013;17:00;-0.11
2013;19/01/2013;18:00;-0.08
2013;19/01/2013;19:00;-0.07
2013;19/01/2013;20:00;-0.04
2013;19/01/2013;21:00;-0.01
2013;19/01/2013;22:00;-0.04
2013;19/01/2013;23:00;-0.05
2013;20/01/2013;00:00;-0.06
2013;20/01/2013;01:00;-0.07
2013;20/01/2013;02:00;-0.08
2013;20/01/2013;03:00;-0.06
2013;20/01/2013;04:00;-0.07
2013;20/01/2013;05:00;-0.07
2013;20/01/2013;06:00;-0.06
2013;20/01/2013;07:00;-0.05
2013;20/01/2013;08:00;-0.05
2013;20/01/2013;09:00;-0.03
2013;20/01/2013;10:00;-0.05
2013;20/01/2013;11:00;-0.04
2013;20/01/2013;12:00;-0.01
2013;20/01/2013;13:00;-0.03
2013;20/01/2013;14:00;-0.06
2013;20/01/2013;15:00;-0.07
2013;20/01/2013;16:00;-0.07
2013;20/01/2013;17:00;-0.05
2013;20/01/2013;18:00;-0.02
2013;20/01/2013;19:00;-0.01
2013;20/01/2013;20:00;0.03
2013;20/01/2013;21:00;0.07
2013;20/01/2013;22:00;0.04
2013;20/01/2013;23:00;0.04
2013;21/01/2013;00:00;0.02
2013;21/01/2013;01:00;0.01
2013;21/01/2013;02:00;0
2013;21/01/2013;03:00;-0.01
2013;21/01/2013;04:00;0.03
2013;21/01/2013;05:00;0.04
2013;21/01/2013;06:00;0.02
2013;21/01/2013;07:00;0.04
2013;21/01/2013;08:00;0.07
2013;21/01/2013;09:00;0.01
2013;21/01/2013;10:00;0.03
2013;21/01/2013;11:00;0.03
2013;21/01/2013;12:00;0.07
2013;21/01/2013;13:00;0.08
2013;21/01/2013;14:00;0.06
2013;21/01/2013;15:00;0.02
2013;21/01/2013;16:00;0
2013;21/01/2013;17:00;-0.01
2013;21/01/2013;18:00;0
2013;21/01/2013;19:00;0
2013;21/01/2013;20:00;0.01
2013;21/01/2013;21:00;0.02
2013;21/01/2013;22:00;0.09
2013;21/01/2013;23:00;0.09
2013;22/01/2013;00:00;0.1
2013;22/01/2013;01:00;0.12
2013;22/01/2013;02:00;0.02
2013;22/01/2013;03:00;0.05
2013;22/01/2013;04:00;0.01
2013;22/01/2013;05:00;0
2013;22/01/2013;06:00;0.02
2013;22/01/2013;07:00;-0.01
2013;22/01/2013;08:00;0.02
2013;22/01/2013;09:00;0.05
2013;22/01/2013;10:00;0.07
2013;22/01/2013;11:00;0.1
2013;22/01/2013;12:00;0.08
2013;22/01/2013;13:00;0.07
2013;22/01/2013;14:00;0.07
2013;22/01/2013;15:00;0.07
2013;22/01/2013;16:00;0.03
2013;22/01/2013;17:00;0.03
2013;22/01/2013;18:00;0
2013;22/01/2013;19:00;0.02
2013;22/01/2013;20:00;0
2013;22/01/2013;21:00;0.03
2013;22/01/2013;22:00;0.05
2013;22/01/2013;23:00;0.08
2013;23/01/2013;00:00;0.12
2013;23/01/2013;01:00;0.07
2013;23/01/2013;02:00;0.09
2013;23/01/2013;03:00;0.05
2013;23/01/2013;04:00;0.01
2013;23/01/2013;05:00;-0.02
2013;23/01/2013;06:00;-0.05
2013;23/01/2013;07:00;-0.05
2013;23/01/2013;08:00;-0.04
2013;23/01/2013;09:00;-0.02
2013;23/01/2013;10:00;0.02
2013;23/01/2013;11:00;0.06
2013;23/01/2013;12:00;0.05
2013;23/01/2013;13:00;0.04
2013;23/01/2013;14:00;0.05
2013;23/01/2013;15:00;0.02
2013;23/01/2013;16:00;0
2013;23/01/2013;17:00;-0.01
2013;23/01/2013;18:00;-0.03
2013;23/01/2013;19:00;-0.02
2013;23/01/2013;20:00;0.02
2013;23/01/2013;21:00;0.03
2013;23/01/2013;22:00;0.09
2013;23/01/2013;23:00;0.14
2013;24/01/2013;00:00;0.18
2013;24/01/2013;01:00;0.18
2013;24/01/2013;02:00;0.17
2013;24/01/2013;03:00;0.12
2013;24/01/2013;04:00;0.14
2013;24/01/2013;05:00;0.12
2013;24/01/2013;06:00;0.07
2013;24/01/2013;07:00;0.03
2013;24/01/2013;08:00;0.08
2013;24/01/2013;09:00;0.04
2013;24/01/2013;10:00;0.09
2013;24/01/2013;11:00;0.1
2013;24/01/2013;12:00;0.13
2013;24/01/2013;13:00;0.14
2013;24/01/2013;14:00;0.17
2013;24/01/2013;15:00;0.12
2013;24/01/2013;16:00;0.08
2013;24/01/2013;17:00;0.01
2013;24/01/2013;18:00;0.06
2013;24/01/2013;19:00;-0.04
2013;24/01/2013;20:00;0.03
2013;24/01/2013;21:00;0.1
2013;24/01/2013;22:00;0.06
2013;24/01/2013;23:00;0.12
2013;25/01/2013;00:00;0.15
2013;25/01/2013;01:00;0.19
2013;25/01/2013;02:00;0.21
2013;25/01/2013;03:00;0.17
2013;25/01/2013;04:00;0.17
2013;25/01/2013;05:00;0.15
2013;25/01/2013;06:00;0.09
2013;25/01/2013;07:00;0
2013;25/01/2013;08:00;0.08
2013;25/01/2013;09:00;0.07
2013;25/01/2013;10:00;0.1
2013;25/01/2013;11:00;0.19
2013;25/01/2013;12:00;0.21
2013;25/01/2013;13:00;0.27
2013;25/01/2013;14:00;0.23
2013;25/01/2013;15:00;0.21
2013;25/01/2013;16:00;0.18
2013;25/01/2013;17:00;0.09
2013;25/01/2013;18:00;0.16
2013;25/01/2013;19:00;0.09
2013;25/01/2013;20:00;0.08
2013;25/01/2013;21:00;0.1
2013;25/01/2013;22:00;0.15
2013;25/01/2013;23:00;0.2
2013;26/01/2013;00:00;0.24
2013;26/01/2013;01:00;0.23
2013;26/01/2013;02:00;0.32
2013;26/01/2013;03:00;0.25
2013;26/01/2013;04:00;0.17
2013;26/01/2013;05:00;0.11
2013;26/01/2013;06:00;0.1
2013;26/01/2013;07:00;0.07
2013;26/01/2013;08:00;0.03
2013;26/01/2013;09:00;0.05
2013;26/01/2013;10:00;0.04
2013;26/01/2013;11:00;0.09
2013;26/01/2013;12:00;0.16
2013;26/01/2013;13:00;0.16
2013;26/01/2013;14:00;0.2
2013;26/01/2013;15:00;0.22
2013;26/01/2013;16:00;0.13
2013;26/01/2013;17:00;0.11
2013;26/01/2013;18:00;0.07
2013;26/01/2013;19:00;0.04
2013;26/01/2013;20:00;0
2013;26/01/2013;21:00;0.01
2013;26/01/2013;22:00;0.07
2013;26/01/2013;23:00;0.09
2013;27/01/2013;00:00;0.13
2013;27/01/2013;01:00;0.18
2013;27/01/2013;02:00;0.2
2013;27/01/2013;03:00;0.21
2013;27/01/2013;04:00;0.18
2013;27/01/2013;05:00;0.12
2013;27/01/2013;06:00;0.05
2013;27/01/2013;07:00;0.02
2013;27/01/2013;08:00;-0.02
2013;27/01/2013;09:00;-0.02
2013;27/01/2013;10:00;0
2013;27/01/2013;11:00;0.04
2013;27/01/2013;12:00;0.09
2013;27/01/2013;13:00;0.11
2013;27/01/2013;14:00;0.13
2013;27/01/2013;15:00;0.13
2013;27/01/2013;16:00;0.11
2013;27/01/2013;17:00;0.06
2013;27/01/2013;18:00;0.02
2013;27/01/2013;19:00;-0.02
2013;27/01/2013;20:00;-0.04
2013;27/01/2013;21:00;-0.04
2013;27/01/2013;22:00;0
2013;27/01/2013;23:00;0.01
2013;28/01/2013;00:00;0.07
2013;28/01/2013;01:00;0.1
2013;28/01/2013;02:00;0.14
2013;28/01/2013;03:00;0.13
2013;28/01/2013;04:00;0.12
2013;28/01/2013;05:00;0.06
2013;28/01/2013;06:00;0.02
2013;28/01/2013;07:00;0
2013;28/01/2013;08:00;-0.02
2013;28/01/2013;09:00;-0.07
2013;28/01/2013;10:00;-0.06
2013;28/01/2013;11:00;-0.01
2013;28/01/2013;12:00;0
2013;28/01/2013;13:00;0.05
2013;28/01/2013;14:00;0.09
2013;28/01/2013;15:00;0.12
2013;28/01/2013;16:00;0.08
2013;28/01/2013;17:00;0.07
2013;28/01/2013;18:00;0.01
2013;28/01/2013;19:00;0
2013;28/01/2013;20:00;-0.05
2013;28/01/2013;21:00;-0.04
2013;28/01/2013;22:00;-0.04
2013;28/01/2013;23:00;-0.03
2013;29/01/2013;00:00;0.05
2013;29/01/2013;01:00;0.08
2013;29/01/2013;02:00;0.12
2013;29/01/2013;03:00;0.16
2013;29/01/2013;04:00;0.13
2013;29/01/2013;05:00;0.11
2013;29/01/2013;06:00;0.04
2013;29/01/2013;07:00;0
2013;29/01/2013;08:00;-0.06
2013;29/01/2013;09:00;-0.06
2013;29/01/2013;10:00;-0.08
2013;29/01/2013;11:00;-0.08
2013;29/01/2013;12:00;-0.01
2013;29/01/2013;13:00;0
2013;29/01/2013;14:00;0.03
2013;29/01/2013;15:00;0.03
2013;29/01/2013;16:00;0.04
2013;29/01/2013;17:00;0.06
2013;29/01/2013;18:00;-0.02
2013;29/01/2013;19:00;-0.07
2013;29/01/2013;20:00;-0.12
2013;29/01/2013;21:00;-0.14
2013;29/01/2013;22:00;-0.12
2013;29/01/2013;23:00;-0.09
2013;30/01/2013;00:00;-0.05
2013;30/01/2013;01:00;0
2013;30/01/2013;02:00;0.02
2013;30/01/2013;03:00;0.05
2013;30/01/2013;04:00;0
2013;30/01/2013;05:00;0.04
2013;30/01/2013;06:00;0.01
2013;30/01/2013;07:00;-0.05
2013;30/01/2013;08:00;-0.12
2013;30/01/2013;09:00;-0.14
2013;30/01/2013;10:00;-0.15
2013;30/01/2013;11:00;-0.19
2013;30/01/2013;12:00;-0.13
2013;30/01/2013;13:00;-0.03
2013;30/01/2013;14:00;-0.05
2013;30/01/2013;15:00;-0.01
2013;30/01/2013;16:00;0
2013;30/01/2013;17:00;-0.04
2013;30/01/2013;18:00;0
2013;30/01/2013;19:00;-0.08
2013;30/01/2013;20:00;-0.11
2013;30/01/2013;21:00;-0.13
2013;30/01/2013;22:00;-0.14
2013;30/01/2013;23:00;-0.13
2013;31/01/2013;00:00;-0.14
2013;31/01/2013;01:00;-0.01
2013;31/01/2013;02:00;0.01
2013;31/01/2013;03:00;0.05
2013;31/01/2013;04:00;0
2013;31/01/2013;05:00;0.03
2013;31/01/2013;06:00;0.02
2013;31/01/2013;07:00;-0.05
2013;31/01/2013;08:00;-0.03
2013;31/01/2013;09:00;-0.13
2013;31/01/2013;10:00;-0.15
2013;31/01/2013;11:00;-0.16
2013;31/01/2013;12:00;-0.13
2013;31/01/2013;13:00;-0.17
2013;31/01/2013;14:00;-0.07
2013;31/01/2013;15:00;0
2013;31/01/2013;16:00;-0.04
2013;31/01/2013;17:00;-0.02
2013;31/01/2013;18:00;-0.04
2013;31/01/2013;19:00;-0.03
2013;31/01/2013;20:00;-0.09
2013;31/01/2013;21:00;-0.15
2013;31/01/2013;22:00;-0.16
2013;31/01/2013;23:00;-0.14
2013;01/02/2013;00:00;-0.19
2013;01/02/2013;01:00;-0.11
2013;01/02/2013;02:00;-0.07
2013;01/02/2013;03:00;-0.04
2013;01/02/2013;04:00;0.05
2013;01/02/2013;05:00;0.02
2013;01/02/2013;06:00;0.01
2013;01/02/2013;07:00;-0.03
2013;01/02/2013;08:00;-0.09
2013;01/02/2013;09:00;-0.05
2013;01/02/2013;10:00;-0.11
2013;01/02/2013;11:00;-0.16
2013;01/02/2013;12:00;-0.09
2013;01/02/2013;13:00;-0.1
2013;01/02/2013;14:00;-0.06
2013;01/02/2013;15:00;-0.03
2013;01/02/2013;16:00;0.03
2013;01/02/2013;17:00;0.02
2013;01/02/2013;18:00;0
2013;01/02/2013;19:00;-0.02
2013;01/02/2013;20:00;-0.05
2013;01/02/2013;21:00;-0.09
2013;01/02/2013;22:00;-0.11
2013;01/02/2013;23:00;-0.14
2013;02/02/2013;00:00;-0.12
2013;02/02/2013;01:00;-0.07
2013;02/02/2013;02:00;-0.05
2013;02/02/2013;03:00;-0.05
2013;02/02/2013;04:00;-0.03
2013;02/02/2013;05:00;0
2013;02/02/2013;06:00;-0.02
2013;02/02/2013;07:00;-0.04
2013;02/02/2013;08:00;-0.06
2013;02/02/2013;09:00;-0.06
2013;02/02/2013;10:00;-0.07
2013;02/02/2013;11:00;-0.1
2013;02/02/2013;12:00;-0.1
2013;02/02/2013;13:00;-0.06
2013;02/02/2013;14:00;-0.07
2013;02/02/2013;15:00;-0.04
2013;02/02/2013;16:00;-0.01
2013;02/02/2013;17:00;0.03
2013;02/02/2013;18:00;0.02
2013;02/02/2013;19:00;0.06
2013;02/02/2013;20:00;0.02
2013;02/02/2013;21:00;0.01
2013;02/02/2013;22:00;0.01
2013;02/02/2013;23:00;0.01
2013;03/02/2013;00:00;0.02
2013;03/02/2013;01:00;-0.01
2013;03/02/2013;02:00;-0.04
2013;03/02/2013;03:00;0.04
2013;03/02/2013;04:00;0.01
2013;03/02/2013;05:00;0
2013;03/02/2013;06:00;0.02
2013;03/02/2013;07:00;0.04
2013;03/02/2013;08:00;0.02
2013;03/02/2013;09:00;0.02
2013;03/02/2013;10:00;-0.03
2013;03/02/2013;11:00;-0.05
2013;03/02/2013;12:00;-0.02
2013;03/02/2013;13:00;-0.04
2013;03/02/2013;14:00;-0.02
2013;03/02/2013;15:00;-0.05
2013;03/02/2013;16:00;-0.01
2013;03/02/2013;17:00;0
2013;03/02/2013;18:00;0
2013;03/02/2013;19:00;-0.02
2013;03/02/2013;20:00;-0.01
2013;03/02/2013;21:00;-0.01
2013;03/02/2013;22:00;0
2013;03/02/2013;23:00;0
2013;04/02/2013;00:00;0
2013;04/02/2013;01:00;-0.07
2013;04/02/2013;02:00;-0.06
2013;04/02/2013;03:00;-0.06
2013;04/02/2013;04:00;-0.09
2013;04/02/2013;05:00;-0.06
2013;04/02/2013;06:00;-0.06
2013;04/02/2013;07:00;-0.08
2013;04/02/2013;08:00;-0.08
2013;04/02/2013;09:00;-0.03
2013;04/02/2013;10:00;
2013;04/02/2013;11:00;-0.1
2013;04/02/2013;12:00;-0.11
2013;04/02/2013;13:00;-0.15
2013;04/02/2013;14:00;-0.17
2013;04/02/2013;15:00;-0.16
2013;04/02/2013;16:00;-0.15
2013;04/02/2013;17:00;-0.13
2013;04/02/2013;18:00;-0.13
2013;04/02/2013;19:00;-0.11
2013;04/02/2013;20:00;-0.06
2013;04/02/2013;21:00;-0.07
2013;04/02/2013;22:00;-0.06
2013;04/02/2013;23:00;-0.03
2013;05/02/2013;00:00;-0.06